User: anonymous   Login
Location: Unspecified
(64.9000°N, 0.0000°E)
Time: 14:55:02
(UTC+00:00)
Language:

Tiros 1 - Orbit

View from above orbital plane
View from above orbital plane
View from above satellite
View from above satellite

Ground track
Ground track

The orbit data is extracted from the following two-line orbital elements,

1    29U 60002B   19169.51044641 -.00000132 +00000-0 +11389-4 0  9993
2    29 048.3788 230.8301 0023513 112.0673 248.2739 14.74307758164699
Epoch (UTC): 18 June 2019 12:15:02
Eccentricity: 0.0023513
inclination: 48.3788°
perigee height: 631 km
apogee height: 664 km
right ascension of ascending node: 230.8301°
argument of perigee: 112.0673°
revolutions per day: 14.74307758
mean anomaly at epoch: 248.2739°
orbit number at epoch: 16469

The dashed part of the orbit path shows where the satellite is in the earth's shadow,  

DLR